Torna al catalogo

STARLINK-3888

AttivoComunicazioniVLEO
NORAD 52454·PAYLOAD·🇺🇸 United States

Lanciato May 6, 2022 da Cape Canaveral Space Force Station

Loading…

Prossimi Passaggi (prossime 24 ore)

TLE

AggiornatoSource: CelesTrak SupGP

Epoca: Sep 14, 2026, 21:07 UTC

1 52454C 22049D   26257.88034722  .00009814  00000+0  28068-3 0  2578
2 52454  53.1591 295.8252 0001140  64.0137 169.9999 15.35405488    12

Traccia STARLINK-3888 in tempo reale con AllMySat

Download on the App Store